Date,TemperatureHighF,TemperatureAvgF,TemperatureLowF,DewpointHighF,DewpointAvgF,DewpointLowF,HumidityHigh,HumidityAvg,HumidityLow,PressureMaxIn,PressureMinIn,WindSpeedMaxMPH,WindSpeedAvgMPH,GustSpeedMaxMPH,PrecipitationSumIn
2013-1-1,35.0,26.5,19.0,20.0,12.1,8.0,64,54,41,0.00,40.00,22,13,30,0.00
2013-1-2,37.0,26.6,14.0,10.0,7.0,1.0,62,44,30,0.00,40.00,17,9,23,0.00
2013-1-3,36.0,23.3,14.0,7.0,3.5,1.0,62,43,29,0.00,40.00,24,18,35,0.00
2013-1-4,43.0,31.8,24.0,10.0,5.9,2.0,43,33,25,0.00,40.00,23,14,28,0.00
2013-1-5,43.0,28.2,18.0,15.0,9.6,5.0,62,46,29,0.00,40.00,17,10,24,0.00
2013-1-6,41.0,31.4,17.0,13.0,9.7,7.0,72,42,28,0.00,40.00,22,9,30,0.00
2013-1-7,44.0,33.7,25.0,16.0,14.2,9.0,60,45,33,0.00,40.00,12,6,19,0.00
2013-1-8,48.0,40.4,31.0,19.0,14.2,9.0,49,35,22,0.00,40.00,25,10,44,0.00
2013-1-9,58.0,43.3,29.0,22.0,18.3,15.0,59,38,21,0.00,40.00,11,5,17,0.00
2013-1-10,52.0,33.2,22.0,26.0,19.5,10.0,74,58,29,0.00,40.00,23,8,32,0.00
2013-1-11,20.0,12.0,10.0,10.0,6.1,3.0,84,77,63,0.00,40.00,14,2,21,0.00
2013-1-12,18.0,10.3,2.0,7.0,4.1,-2.0,84,76,56,0.00,40.00,15,2,22,0.00
2013-1-13,19.0,11.8,6.0,5.0,2.4,0.0,81,66,50,0.00,40.00,17,6,23,0.00
2013-1-14,19.0,13.8,8.0,3.0,0.9,-1.0,65,56,45,0.00,40.00,22,16,32,0.00
2013-1-15,30.0,23.3,18.0,15.0,11.2,4.0,70,60,53,0.00,40.00,27,19,37,0.00
2013-1-16,41.0,34.3,27.0,18.0,15.2,12.0,53,45,35,0.00,40.00,20,12,27,0.00
2013-1-17,43.0,33.2,25.0,18.0,14.4,12.0,56,46,37,0.00,40.00,24,16,33,0.00
2013-1-18,54.0,40.4,33.0,19.0,15.6,13.0,42,36,23,0.00,40.00,19,11,30,0.00
2013-1-19,41.0,33.9,23.0,23.0,17.6,11.0,87,53,35,0.00,40.00,11,4,17,0.00
2013-1-20,33.0,23.8,16.0,22.0,13.2,8.0,83,63,47,0.00,40.00,13,2,22,0.00
2013-1-21,30.0,19.8,13.0,14.0,10.0,6.0,80,66,49,0.00,40.00,6,1,19,0.00
2013-1-22,47.0,30.5,13.0,15.0,12.5,9.0,87,52,25,0.00,40.00,17,8,23,0.00
2013-1-23,31.0,22.9,17.0,15.0,12.4,10.0,75,64,48,0.00,40.00,10,1,17,0.00
2013-1-24,54.0,36.2,20.0,22.0,16.6,13.0,76,48,27,0.00,40.00,21,4,35,0.00
2013-1-25,52.0,35.8,23.0,24.0,20.3,17.0,81,56,32,0.00,40.00,13,5,17,0.00
2013-1-26,59.0,43.9,32.0,24.0,22.4,21.0,66,44,26,0.00,40.00,12,4,17,0.00
2013-1-27,35.0,32.3,30.0,32.0,27.7,22.0,90,84,66,0.00,40.00,5,0,10,0.00
2013-1-28,40.0,30.9,24.0,28.0,17.8,2.0,89,62,23,0.00,40.00,19,5,28,0.00
2013-1-29,29.0,20.4,8.0,16.0,6.8,-3.0,65,55,42,0.00,40.00,19,6,28,0.00
2013-1-30,32.0,22.9,9.0,27.0,14.2,-1.0,88,70,49,0.00,40.00,19,6,30,0.00
2013-1-31,30.0,17.8,4.0,20.0,7.7,-3.0,74,64,56,0.00,40.00,19,4,28,0.00
2013-2-1,46.0,37.7,29.0,24.0,20.0,15.0,67,50,30,0.00,40.00,19,9,29,0.00
2013-2-2,40.0,30.7,25.0,19.0,16.4,14.0,73,56,37,0.00,40.00,11,6,20,0.00
2013-2-4,52.0,44.8,33.0,21.0,18.7,17.0,53,36,24,0.00,40.00,26,12,39,0.00
2013-2-5,52.0,40.7,32.0,26.0,21.3,19.0,61,46,33,0.00,40.00,16,6,22,0.00
2013-2-6,50.0,40.1,30.0,23.0,16.3,11.0,67,40,23,0.00,40.00,17,6,26,0.00
2013-2-7,45.0,34.9,25.0,20.0,17.7,13.0,80,51,30,0.00,40.00,6,1,9,0.00
2013-2-8,46.0,33.6,26.0,21.0,18.4,15.0,76,55,29,0.00,40.00,3,0,7,0.00
2013-2-9,43.0,31.6,23.0,24.0,19.1,14.0,87,63,32,0.00,40.00,10,2,14,0.00
2013-2-10,33.0,26.6,16.0,27.0,17.2,8.0,89,69,41,0.00,40.00,21,5,31,0.00
2013-2-11,35.0,22.7,11.0,13.0,7.8,5.0,85,56,35,0.00,40.00,23,15,31,0.00
2013-2-12,44.0,32.4,23.0,13.0,8.4,4.0,47,36,28,0.00,40.00,20,14,31,0.00
2013-2-13,50.0,36.3,30.0,31.0,17.5,7.0,84,48,26,0.00,40.00,24,11,45,0.00
2013-2-14,35.0,30.5,27.0,28.0,16.9,10.0,88,59,34,0.00,40.00,16,4,21,0.00
2013-2-15,45.0,33.2,26.0,24.0,20.4,17.0,88,62,34,0.00,40.00,19,9,26,0.00
2013-2-16,53.0,39.8,31.0,19.0,17.0,15.0,56,41,26,0.00,40.00,21,14,30,0.00
2013-2-17,45.0,38.2,32.0,25.0,18.8,13.0,63,46,28,0.00,40.00,23,11,38,0.00
2013-2-18,38.0,30.5,23.0,26.0,16.9,10.0,87,58,37,0.00,40.00,12,4,18,0.00
2013-2-19,32.0,22.2,15.0,16.0,13.2,10.0,86,69,43,0.00,40.00,8,3,10,0.00
2013-2-20,32.0,25.1,18.0,17.0,14.3,10.0,86,65,43,0.00,40.00,12,5,16,0.00
2013-2-21,41.0,29.6,22.0,21.0,17.9,13.0,86,64,38,0.00,40.00,15,4,21,0.00
2013-2-22,44.0,33.6,26.0,17.0,12.7,7.0,66,44,22,0.00,40.00,18,11,27,0.00
2013-2-23,41.0,34.1,31.0,32.0,19.5,10.0,88,58,33,0.00,40.00,18,8,27,0.00
2013-2-24,45.0,34.2,25.0,22.0,13.4,8.0,68,44,27,0.00,40.00,14,7,22,0.00
2013-2-25,49.0,37.4,27.0,15.0,11.9,8.0,55,37,21,0.00,40.00,20,10,37,0.00
2013-2-26,43.0,36.6,29.0,16.0,12.4,9.0,53,37,25,0.00,40.00,20,10,33,0.00
2013-2-27,46.0,34.5,24.0,19.0,13.2,7.0,70,45,22,0.00,40.00,13,9,22,0.00
2013-2-28,49.0,38.3,30.0,17.0,12.7,10.0,45,35,24,0.00,40.00,22,10,30,0.00
2013-3-1,61.0,44.6,30.0,26.0,19.7,14.0,56,38,25,0.00,40.00,29,13,45,0.00
2013-3-2,63.0,47.5,37.0,27.0,24.0,20.0,53,41,25,0.00,40.00,23,11,34,0.00
2013-3-3,55.0,38.7,29.0,30.0,24.3,7.0,90,57,37,0.00,40.00,34,8,51,0.00
2013-3-4,31.0,24.9,15.0,10.0,6.0,3.0,61,45,32,0.00,40.00,34,15,52,0.00
2013-3-5,32.0,19.6,9.0,18.0,9.4,3.0,83,66,43,0.00,40.00,8,4,11,0.00
2013-3-6,36.0,26.5,16.0,23.0,17.5,12.0,86,70,48,0.00,40.00,9,4,12,0.00
2013-3-7,57.0,40.9,29.0,27.0,18.9,5.0,80,48,13,0.00,40.00,14,7,26,0.00
2013-3-8,42.0,34.2,30.0,27.0,23.9,21.0,74,66,47,0.00,40.00,10,5,17,0.00
2013-3-9,48.0,40.3,26.0,11.0,8.7,7.0,54,28,20,0.00,40.00,24,12,35,0.00
2013-3-10,60.0,39.8,21.0,18.0,13.1,8.0,78,42,15,0.00,40.00,18,8,29,0.00
2013-3-11,49.0,40.1,32.0,21.0,16.1,8.0,47,38,19,0.00,40.00,23,12,34,0.00
2013-3-12,50.0,35.5,24.0,24.0,16.8,11.0,84,52,23,0.00,40.00,14,5,19,0.00
2013-3-13,69.0,50.6,32.0,25.0,20.5,18.0,60,34,17,0.00,40.00,26,13,40,0.00
2013-3-14,69.0,53.6,37.0,30.0,25.1,20.0,62,36,19,0.00,40.00,24,7,34,0.00
2013-3-15,65.0,52.9,38.0,29.0,23.7,20.0,57,34,18,0.00,40.00,29,14,42,0.00
2013-3-16,51.0,37.4,27.0,26.0,23.3,21.0,85,60,32,0.00,40.00,16,7,21,0.00
2013-3-17,42.0,34.0,25.0,29.0,15.7,3.0,84,52,19,0.00,40.00,33,13,52,0.00
2013-3-18,44.0,30.1,15.0,14.0,7.6,3.0,72,42,18,0.00,40.00,26,9,47,0.00
2013-3-19,39.0,30.8,25.0,22.0,15.4,11.0,87,55,34,0.00,40.00,17,7,22,0.00
2013-3-20,59.0,36.5,18.0,17.0,14.6,13.0,81,47,19,0.00,40.00,13,5,20,0.00
2013-3-21,48.0,40.7,34.0,32.0,15.0,2.0,82,39,18,0.00,40.00,21,10,34,0.00
2013-3-22,36.0,28.1,21.0,26.0,13.3,3.0,88,56,26,0.00,40.00,16,9,24,0.00
2013-3-23,34.0,25.2,17.0,14.0,5.2,-3.0,74,46,20,0.00,40.00,18,8,23,0.00
2013-3-24,34.0,23.3,9.0,11.0,5.9,1.0,83,51,24,0.00,40.00,14,5,24,0.00
2013-3-25,49.0,29.7,10.0,11.0,5.9,1.0,83,44,16,0.00,40.00,16,4,20,0.00
2013-3-26,54.0,39.2,23.0,16.0,11.6,2.0,56,34,20,0.00,40.00,15,5,18,0.00
2013-3-27,64.0,44.0,23.0,22.0,16.1,9.0,68,36,17,0.00,40.00,12,5,17,0.00
2013-3-28,67.0,50.1,32.0,27.0,22.5,17.0,64,37,20,0.00,40.00,14,6,17,0.00
2013-3-29,66.0,49.9,40.0,39.0,27.8,20.0,74,44,27,0.00,40.00,17,9,33,0.00
2013-3-30,60.0,50.8,42.0,39.0,24.8,-99.9,77,41,20,0.00,40.00,23,10,39,0.00
2013-3-31,59.0,45.3,32.0,27.0,21.1,14.0,63,40,25,0.00,40.00,24,11,34,0.00
2013-4-1,59.0,42.7,23.0,25.0,20.5,15.0,85,46,23,0.00,40.00,14,7,21,0.00
2013-4-2,71.0,48.9,27.0,27.0,21.0,16.0,70,38,16,0.00,40.00,13,6,19,0.00
2013-4-3,67.0,54.5,44.0,30.0,25.5,20.0,48,33,24,0.00,40.00,22,10,29,0.00
2013-4-4,59.0,47.7,35.0,30.0,28.0,25.0,70,48,34,0.00,40.00,16,8,21,0.00
2013-4-5,62.0,53.1,43.0,42.0,32.8,26.0,65,47,33,0.00,40.00,19,10,30,0.00
2013-4-6,65.0,51.4,39.0,38.0,30.8,27.0,67,48,25,0.00,40.00,21,9,30,0.00
2013-4-7,64.0,49.4,37.0,42.0,35.9,29.0,88,62,30,0.00,40.00,20,6,34,0.00
2013-4-8,37.0,26.2,22.0,33.0,20.3,14.0,89,79,68,0.00,40.00,22,14,34,0.00
2013-4-9,31.0,26.1,19.0,14.0,9.5,6.0,68,50,37,0.00,40.00,9,5,13,0.00
2013-4-10,49.0,33.0,18.0,24.0,15.0,10.0,74,50,29,0.00,40.00,12,6,20,0.00
2013-4-11,56.0,46.1,37.0,31.0,23.8,18.0,64,42,27,0.00,40.00,29,14,48,0.00
2013-4-12,52.0,43.4,36.0,33.0,21.9,15.0,76,45,23,0.00,40.00,17,9,27,0.00
2013-4-13,54.0,40.2,37.0,35.0,26.0,14.0,86,59,36,0.00,40.00,24,8,42,0.00
2013-4-14,39.0,33.7,25.0,27.0,16.9,11.0,74,52,32,0.00,40.00,27,16,39,0.00
2013-4-15,33.0,28.1,22.0,19.0,16.0,13.0,81,61,43,0.00,40.00,12,6,19,0.00
2013-4-16,31.0,25.6,21.0,21.0,18.6,13.0,83,75,48,0.00,40.00,14,6,20,0.00
2013-4-17,36.0,29.4,20.0,23.0,18.6,15.0,87,65,46,0.00,40.00,16,5,20,0.00
2013-4-18,53.0,39.6,21.0,23.0,15.9,9.0,89,47,18,0.00,40.00,18,11,31,0.00
2013-4-19,58.0,48.5,38.0,41.0,24.3,16.0,85,40,26,0.00,40.00,16,8,29,0.00
2013-4-20,62.0,50.5,38.0,41.0,29.0,18.0,85,48,18,0.00,40.00,22,10,44,0.00
2013-4-21,49.0,34.5,28.0,32.0,27.2,24.0,92,76,38,0.00,40.00,19,12,27,0.00
2013-4-22,35.0,29.4,25.0,25.0,18.2,10.0,88,64,34,0.00,40.00,16,8,24,0.00
2013-4-23,50.0,36.0,22.0,25.0,13.9,5.0,70,44,16,0.00,40.00,24,12,33,0.00
2013-4-24,58.0,46.2,34.0,29.0,19.1,12.0,81,39,18,0.00,40.00,24,10,36,0.00
2013-4-25,68.0,54.8,41.0,23.0,17.7,14.0,40,25,13,0.00,40.00,26,10,38,0.00
2013-4-26,75.0,59.4,43.0,29.0,24.3,17.0,55,29,13,0.00,40.00,18,8,26,0.00
2013-4-27,77.0,62.7,49.0,31.0,25.3,21.0,43,26,13,0.00,40.00,29,13,41,0.00
2013-4-28,68.0,61.5,55.0,35.0,27.7,21.0,38,28,18,0.00,40.00,17,7,25,0.00
2013-4-29,68.0,54.0,46.0,36.0,31.8,28.0,56,44,23,0.00,40.00,26,11,45,0.00
2013-4-30,46.0,42.3,35.0,26.0,18.9,14.0,50,39,30,0.00,40.00,22,14,37,0.00
2013-5-1,52.0,38.7,28.0,21.0,17.3,13.0,68,45,23,0.00,40.00,13,5,20,0.00
2013-5-2,66.0,49.9,33.0,27.0,20.4,14.0,63,35,17,0.00,40.00,17,10,27,0.00
2013-5-3,68.0,54.8,46.0,42.0,25.7,17.0,80,34,22,0.00,40.00,22,10,26,0.00
2013-5-4,61.0,51.0,43.0,42.0,37.0,28.0,81,61,33,0.00,40.00,16,5,21,0.00
2013-5-5,70.0,53.9,33.0,34.0,27.0,21.0,86,42,20,0.00,40.00,12,5,21,0.00
2013-5-6,75.0,56.0,37.0,31.0,26.9,20.0,59,35,18,0.00,40.00,12,6,17,0.00
2013-5-7,82.0,63.2,45.0,35.0,30.0,25.0,58,33,16,0.00,40.00,17,8,26,0.00
2013-5-8,72.0,61.2,46.0,38.0,34.7,25.0,58,38,28,0.00,40.00,13,7,20,0.00
2013-5-9,75.0,60.5,42.0,44.0,36.3,33.0,77,44,23,0.00,40.00,13,5,20,0.00
2013-5-10,71.0,56.8,48.0,42.0,32.4,-99.9,71,45,24,0.00,40.00,21,11,28,0.00
2013-5-11,80.0,59.7,37.0,37.0,27.9,-99.9,57,32,20,0.00,40.00,14,5,17,0.00
2013-5-12,90.0,73.7,58.0,42.0,37.2,34.0,42,28,15,0.00,40.00,21,9,34,0.00
2013-5-13,93.0,77.0,62.0,47.0,39.4,33.0,42,28,16,0.00,40.00,20,8,32,0.00
2013-5-14,83.0,69.2,53.0,45.0,36.5,26.0,67,33,19,0.00,40.00,18,8,32,0.00
2013-5-15,76.0,64.5,45.0,36.0,29.6,19.0,40,27,23,0.00,40.00,13,7,21,0.00
2013-5-16,70.0,56.5,53.0,52.0,28.6,-99.9,85,61,30,0.00,40.00,17,6,27,0.00
2013-5-17,61.0,55.7,51.0,54.0,46.8,-99.9,87,81,57,0.00,40.00,7,4,12,0.00
2013-5-18,59.0,55.1,51.0,52.0,49.1,45.0,87,80,64,0.00,40.00,14,4,19,0.00
2013-5-19,55.0,53.1,52.0,50.0,47.7,46.0,86,82,76,0.00,40.00,20,9,31,0.00
2013-5-20,65.0,59.0,51.0,44.0,33.2,21.0,75,41,19,0.00,40.00,23,13,31,0.00
2013-5-21,69.0,56.1,44.0,41.0,33.7,23.0,83,50,20,0.00,40.00,23,12,30,0.00
2013-5-22,68.0,55.1,46.0,41.0,38.5,36.0,81,56,35,0.00,40.00,23,14,36,0.00
2013-5-23,71.0,61.1,54.0,53.0,42.0,37.0,81,51,33,0.00,40.00,24,14,35,0.00
2013-5-24,72.0,61.1,52.0,50.0,33.8,22.0,82,43,16,0.00,40.00,17,7,24,0.00
2013-5-25,78.0,61.4,43.0,38.0,34.2,30.0,72,39,20,0.00,40.00,16,6,21,0.00
2013-5-26,79.0,62.3,47.0,53.0,44.2,32.0,79,53,30,0.00,40.00,12,5,31,0.00
2013-5-27,66.0,57.7,50.0,50.0,43.0,36.0,87,60,35,0.00,40.00,10,-13,37,0.00
2013-5-28,72.0,58.6,47.0,46.0,40.9,35.0,87,57,25,0.00,40.00,13,4,19,0.00
2013-5-29,61.0,54.2,53.0,50.0,48.4,43.0,87,81,51,0.00,40.00,11,5,17,0.00
2013-5-30,55.0,52.3,51.0,49.0,44.2,37.0,86,74,50,0.00,40.00,22,9,33,0.00
2013-5-31,56.0,51.5,49.0,42.0,37.2,32.0,74,59,43,0.00,40.00,26,14,40,0.00
2013-6-1,71.0,59.8,48.0,42.0,36.7,31.0,75,45,24,0.00,40.00,9,5,14,0.00
2013-6-2,76.0,64.5,53.0,47.0,41.2,36.0,67,45,26,0.00,40.00,16,7,22,0.00
2013-6-3,62.0,53.5,48.0,50.0,37.6,30.0,83,57,30,0.00,40.00,22,14,46,0.00
2013-6-4,55.0,48.5,41.0,39.0,34.1,31.0,80,58,44,0.00,40.00,12,6,20,0.00
2013-6-5,70.0,52.4,37.0,41.0,33.9,26.0,88,56,19,0.00,40.00,10,3,14,0.00
2013-6-6,79.0,64.4,46.0,47.0,39.6,33.0,79,44,23,0.00,40.00,16,6,20,0.00
2013-6-7,86.0,66.1,52.0,48.0,44.5,34.0,85,52,17,0.00,40.00,14,5,22,0.00
2013-6-8,72.0,70.0,69.0,42.0,38.5,37.0,34,32,31,0.00,40.00,12,9,19,0.00
2013-6-9,84.0,78.7,71.0,45.0,42.5,38.0,37,28,20,0.00,40.00,11,7,16,0.00
2013-6-10,80.0,67.4,52.0,50.0,43.5,39.0,74,44,24,0.00,40.00,12,6,20,0.00
2013-6-11,79.0,65.3,57.0,56.0,51.9,46.0,86,64,42,0.00,40.00,18,7,31,0.00
2013-6-12,73.0,63.7,52.0,56.0,52.2,48.0,87,68,47,0.00,40.00,21,6,37,0.00
2013-6-13,79.0,68.6,54.0,54.0,49.5,45.0,81,53,30,0.00,40.00,23,9,38,0.00
2013-6-14,68.0,60.2,51.0,46.0,35.0,25.0,77,42,20,0.00,40.00,22,10,34,0.00
2013-6-15,79.0,63.5,46.0,40.0,32.9,26.0,76,37,15,0.00,40.00,11,5,15,0.00
2013-6-16,78.0,65.6,49.0,45.0,39.5,35.0,79,42,24,0.00,40.00,12,7,19,0.00
2013-6-17,81.0,68.9,53.0,48.0,45.1,41.0,76,45,28,0.00,40.00,12,7,19,0.00
2013-6-18,89.0,73.6,57.0,54.0,48.2,42.0,72,43,23,0.00,40.00,12,5,17,0.00
2013-6-19,88.0,71.9,56.0,52.0,47.0,34.0,71,44,28,0.00,40.00,26,8,41,0.00
2013-6-20,76.0,64.3,52.0,36.0,29.4,25.0,34,27,19,0.00,40.00,13,7,23,0.00
2013-7-2,94.0,79.6,74.0,47.0,35.1,-99.9,34,24,10,0.00,40.00,0,0,0,0.00
2013-7-3,97.0,81.5,65.0,55.0,48.5,43.0,60,35,16,0.00,40.00,0,0,0,0.00
2013-7-4,92.0,78.5,66.0,63.0,56.6,46.0,71,49,27,0.00,40.00,0,0,0,0.00
2013-7-5,82.0,72.1,60.0,59.0,51.8,46.0,84,52,29,0.00,40.00,16,3,22,0.00
2013-7-6,84.0,71.3,59.0,57.0,50.4,43.0,79,51,25,0.00,40.00,19,6,24,0.00
2013-7-7,86.0,70.9,57.0,55.0,49.7,41.0,86,51,26,0.00,40.00,14,5,30,0.00
2013-7-8,93.0,69.7,59.0,59.0,50.5,-99.9,83,55,23,0.00,40.00,12,4,19,0.00
2013-7-9,81.0,68.7,61.0,60.0,54.8,47.0,86,65,30,0.00,40.00,10,4,19,0.00